Home > Time Zones > World Clock > Weather > Japan > Kobe > Past weeks

Flag for Japan Weather past 2 weeks in Kobe, Japan

Now
61 °F

Sprinkles. Fog.


Feels Like: 61 °F
Forecast: 45 / 63 °F
Wind: 9 mph from West

Location: Osaka International Airport

Current Time: Apr 1, 2015 at 3:22:11 PM

Latest Report: Apr 1, 2015 at 2:00 PM


Visibility: 3 mi

Pressure: 29.83 "Hg

Humidity: 94%

Dew point: 59 °F

Location of KobeLocation

Historic Weather in Kobe — Graph

°F

Kobe temperature yesterday

Maximum temperature yesterday: 72 °F (at 1:00 PM)
Minimum temperature yesterday: 46 °F (at 5:00 AM)
Average temperature yesterday: 63 °F

Past Weeks' High & Low Weather Summary

 TemperatureHumidityPressure
High72 °F (Mar 31, 1:00 PM)100% (Mar 19, 5:00 AM)30.57 "Hg (Mar 19, 5:00 AM)
Low34 °F (Mar 26, 6:00 AM)20% (Mar 27, 3:00 PM)29.71 "Hg (Mar 19, 11:00 AM)
Average56 °F60%30.09 "Hg
* Reported Mar 17 2:00 PM — Apr 1 2:00 PM, Kobe, Weather by CustomWeather, © 2015

Note: Actual official high and low records may vary slightly from our data, if they occured in-between our weather recording intervals... More about our weather records

Advertising

Kobe weather history for previous 24 hours

 ConditionsComfort  
Time TempWeatherWind HumidityBarometerVisibility
2:00 PM
Wed, Apr 1
61 °FSprinkles. Fog.9 mph94%29.83 "Hg3 mi
1:50 PM61 °FSprinkles. Fog.10 mph94%29.83 "Hg3 mi
1:00 PM61 °FSprinkles. Fog.9 mph94%29.86 "Hg3 mi
12:00 PM61 °FSprinkles. Fog.12 mph94%29.89 "Hg3 mi
11:00 AM61 °FSprinkles. Fog.9 mph94%29.89 "Hg3 mi
10:00 AM61 °FSprinkles. Fog.8 mph94%29.92 "Hg3 mi
9:47 AM61 °FSprinkles. Fog.6 mph94%29.92 "Hg3 mi
9:00 AM61 °FSprinkles. Broken clouds.6 mph94%29.92 "Hg5 mi
8:00 AM61 °FScattered showers. Broken clouds.5 mph88%29.92 "Hg6 mi
7:00 AM59 °FBroken clouds.5 mph88%29.92 "HgN/A
6:00 AM59 °FSprinkles. Broken clouds.3 mph94%29.92 "Hg6 mi
5:00 AM59 °FFog.6 mph94%29.92 "Hg4 mi
8:00 PM
Tue, Mar 31
66 °FPassing clouds.7 mph68%30.04 "HgN/A
7:00 PM66 °FPartly cloudy.10 mph68%30.01 "HgN/A
6:00 PM66 °FPartly sunny.12 mph68%30.01 "HgN/A
5:00 PM70 °FPartly sunny.10 mph60%30.01 "HgN/A
4:00 PM72 °FScattered clouds.12 mph53%30.01 "HgN/A
3:00 PM72 °FPassing clouds.12 mph53%30.01 "HgN/A
Weather by CustomWeather, © 2015

See weather overviewHow to use our weather pages